Home   Weather   Kloten   Past weeks

Flag for Switzerland Past Weather in Kloten, Zurich, Switzerland — Yesterday and Last 2 Weeks

Now
77 °F

Scattered clouds.


Feels Like: 79 °F
Forecast: 54 / 81 °F
Wind: 9 mph from Northeast

Location: Zurich-Kloten

Current Time: Aug 30, 2016 at 5:04:48 PM

Latest Report: Aug 30, 2016 at 4:20 PM


Visibility: N/A

Pressure: 30.18 "Hg

Humidity: 51%

Dew Point: 57 °F

Location of KlotenLocation

Past Weather in Kloten — Graph

°F

Kloten Temperature Yesterday

Maximum temperature yesterday: 73 °F (at 4:20 PM)
Minimum temperature yesterday: 64 °F (at 11:50 PM)
Average temperature yesterday: 69 °F

High & Low Weather Summary for the Past Weeks

 TemperatureHumidityPressure
High91 °F (Aug 26, 4:20 PM)100% (Aug 16, 3:20 AM)30.42 "Hg (Aug 16, 3:20 AM)
Low48 °F (Aug 22, 4:20 AM)31% (Aug 27, 5:20 PM)29.86 "Hg (Aug 17, 5:20 PM)
Average69 °F74%30.11 "Hg
* Reported Aug 15 3:20 PM — Aug 30 3:50 PM, Kloten, Weather by CustomWeather, © 2016

Note: Actual official high and low records may vary slightly from our data, if they occured in-between our weather recording intervals... More about our weather records

Advertising

Kloten Weather History for the Previous 24 Hours

Scroll right to see more
 ConditionsComfort  
Time TempWeatherWind HumidityBarometerVisibility
3:50 PM
Tue, Aug 30
75 °FScattered clouds.10 mph54%30.18 "HgN/A
3:20 PM75 °FPassing clouds.14 mph50%30.18 "HgN/A
2:50 PM75 °FPassing clouds.14 mph50%30.18 "HgN/A
2:20 PM75 °FPassing clouds.12 mph54%30.18 "HgN/A
1:50 PM75 °FPassing clouds.15 mph50%30.18 "HgN/A
1:20 PM75 °FPassing clouds.13 mph57%30.18 "HgN/A
12:50 PM73 °FPassing clouds.14 mph53%30.18 "HgN/A
12:20 PM73 °FPassing clouds.10 mph57%30.21 "HgN/A
11:50 AM72 °FPassing clouds.10 mph61%30.21 "HgN/A
11:20 AM70 °FPassing clouds.14 mph64%30.21 "HgN/A
10:50 AM70 °FPassing clouds.10 mph64%30.21 "HgN/A
10:20 AM68 °FPassing clouds.7 mph69%30.21 "HgN/A
9:50 AM68 °FPassing clouds.7 mph69%30.21 "HgN/A
9:20 AM66 °FPassing clouds.7 mph68%30.21 "HgN/A
8:50 AM64 °FPassing clouds.5 mph73%30.21 "HgN/A
8:20 AM63 °FScattered clouds.3 mph73%30.21 "HgN/A
7:50 AM63 °FScattered clouds.5 mph77%30.21 "HgN/A
7:20 AM61 °FPassing clouds.6 mph83%30.18 "HgN/A
6:50 AM61 °FPassing clouds.5 mph83%30.18 "HgN/A
6:20 AM61 °FPartly cloudy.6 mph83%30.18 "HgN/A
5:50 AM61 °FPartly cloudy.5 mph83%30.18 "HgN/A
5:20 AM63 °FPassing clouds.3 mph73%30.18 "HgN/A
4:50 AM63 °FPassing clouds.5 mph77%30.18 "HgN/A
4:20 AM61 °FPassing clouds.6 mph83%30.18 "HgN/A
3:50 AM61 °FPassing clouds.5 mph83%30.18 "HgN/A
3:20 AM59 °FPassing clouds.3 mph88%30.18 "HgN/A
2:50 AM63 °FPassing clouds.2 mph83%30.18 "HgN/A
1:50 AM63 °FPassing clouds.1 mph83%30.21 "HgN/A
1:20 AM64 °FPartly cloudy.1 mph83%30.21 "HgN/A
12:50 AM64 °FPartly cloudy.1 mph78%30.21 "HgN/A
12:20 AM66 °FPartly cloudy.1 mph73%30.21 "HgN/A
11:50 PM
Mon, Aug 29
64 °FPartly cloudy.1 mph73%30.21 "HgN/A
11:20 PM66 °FPartly cloudy.2 mph64%30.21 "HgN/A
10:50 PM66 °FPassing clouds.2 mph73%30.21 "HgN/A
10:20 PM66 °FPassing clouds.2 mph68%30.21 "HgN/A
9:50 PM68 °FPassing clouds.2 mph64%30.18 "HgN/A
9:20 PM68 °FPassing clouds.2 mph64%30.18 "HgN/A
8:50 PM68 °FPartly sunny.5 mph64%30.18 "HgN/A
8:20 PM70 °FPartly sunny.6 mph60%30.15 "HgN/A
7:50 PM70 °FPartly sunny.7 mph64%30.15 "HgN/A
7:20 PM70 °FPartly sunny.6 mph64%30.15 "HgN/A
6:50 PM72 °FPartly sunny.3 mph65%30.15 "HgN/A
6:20 PM70 °FPartly sunny.5 mph69%30.15 "HgN/A
5:50 PM70 °FPartly sunny.6 mph64%30.15 "HgN/A
5:20 PM72 °FPartly sunny.6 mph57%30.15 "HgN/A
Weather by CustomWeather, © 2016

See weather overviewHow to use our weather pages